Location: Beaurecueil
(43.5122°N, 5.5450°E)
Time: 06:45:39
(UTC+00:00)

Cosmos 1939 Rocket - Pass Details

Date: 20 January 2021
Orbit: 531 x 585 km, 97.4° (Epoch: 06 March)

Event Time Altitude Azimuth Distance (km) Brightness Sun altitude
Rises 05:17:20 0° 33° (NNE) 2,730 6.7 -19.2°
Reaches altitude 10° 05:20:39 10° 64° (ENE) 1,817 6.2 -18.7°
Maximum altitude 05:22:21 12° 90° (E) 1,654 6.4 -18.4°
Drops below altitude 10° 05:24:02 10° 116° (ESE) 1,799 6.6 -18.1°
Sets 05:27:17 0° 146° (SE) 2,674 7.0 -17.5°
